This is the latest recevied weather packets stored in our database for station/object K5RWS. If no packets are shown the sender has not sent any weather packets the latest 10 day(s).
| Time | Temp. | Humidity | Pressure | Rain* | Wind** | Luminosity | Snow |
|---|---|---|---|---|---|---|---|
| 1778063800 | 5° C | 70% | 1016.6 hPa | 0 mm | - | 0 W/m² | - |
| 1778063497 | 5.56° C | 68% | 1016.4 hPa | 0 mm | - | 0 W/m² | - |
| 1778063195 | 6.67° C | 67% | 1016.4 hPa | 0 mm | - | 0 W/m² | - |
| 1778062892 | 5.56° C | 69% | 1016.4 hPa | 0 mm | - | 0 W/m² | - |
| 1778062589 | 6.11° C | 69% | 1016.4 hPa | 0 mm | - | 0 W/m² | - |
| 1778062286 | 5.56° C | 71% | 1016.3 hPa | 0 mm | - | 0 W/m² | - |
| 1778061985 | 5.56° C | 71% | 1016.4 hPa | 0 mm | - | 0 W/m² | - |
| 1778061682 | 5° C | 73% | 1016.3 hPa | 0 mm | - | 0 W/m² | - |
| 1778061381 | 5° C | 72% | 1016.3 hPa | 0 mm | - | 0 W/m² | - |
| 1778061077 | 5.56° C | 71% | 1016.3 hPa | 0 mm | - | 0 W/m² | - |
| 1778060774 | 6.11° C | 70% | 1016.3 hPa | 0 mm | - | 0 W/m² | - |
| 1778060472 | 6.11° C | 69% | 1016.2 hPa | 0 mm | - | 0 W/m² | - |
| 1778060170 | 6.11° C | 69% | 1016.1 hPa | 0 mm | - | 0 W/m² | - |
| 1778059867 | 6.11° C | 70% | 1016.1 hPa | 0 mm | - | 0 W/m² | - |
| 1778059565 | 6.11° C | 70% | 1016.1 hPa | 0 mm | - | 0 W/m² | - |
| 1778059261 | 6.11° C | 70% | 1016 hPa | 0 mm | - | 0 W/m² | - |
| 1778058960 | 5.56° C | 71% | 1016 hPa | 0 mm | - | 0 W/m² | - |
| 1778058657 | 6.11° C | 70% | 1016.1 hPa | 0 mm | - | 0 W/m² | - |
| 1778058355 | 6.11° C | 70% | 1016 hPa | 0 mm | - | 0 W/m² | - |
| 1778058051 | 6.11° C | 70% | 1016.3 hPa | 0 mm | - | 0 W/m² | - |
| 1778057748 | 6.11° C | 70% | 1015.9 hPa | 0 mm | - | 0 W/m² | - |
| 1778057444 | 6.11° C | 70% | 1016.1 hPa | 0 mm | - | 0 W/m² | - |
| 1778057141 | 6.11° C | 70% | 1016.2 hPa | 0 mm | - | 0 W/m² | - |
| 1778056837 | 6.11° C | 71% | 1016.1 hPa | 0 mm | - | 0 W/m² | - |
| 1778056535 | 6.11° C | 71% | 1016.3 hPa | 0 mm | - | 0 W/m² | - |
* Rain latest hour (hover to see other rain measurements)
** Current wind speed in m/s (hover to see current wind gust speed)